EW1979 Weather Reports


time (UTC)temp
C
wind
direction
speed
KPH
gust
KPH
rain 1hr
cm
rain 24hr
cm
rain mn
cm
humidity
%
barometer
mb
20260831084509 23 171 11.3 0.0 0.00 0.00 0.00 87 1011.2
20260831083003 23 189 11.3 0.0 0.00 0.00 0.00 87 1011.4
20260831081605 23 171 8.0 0.0 0.00 0.00 0.00 86 1011.5
20260831080104 23 175 8.0 0.0 0.00 0.00 0.00 85 1011.5
20260831074504 23 179 9.7 0.0 0.00 0.00 0.00 84 1011.5
20260831071512 23 173 9.7 0.0 0.00 0.00 0.00 82 1011.5
20260831064603 24 171 9.7 0.0 0.00 0.00 0.00 79 1011.5
20260831063103 24 161 6.4 0.0 0.00 0.00 0.00 78 1011.6
20260831061505 25 174 9.7 0.0 0.00 0.00 0.00 77 1011.6
20260831060104 25 155 9.7 0.0 0.00 0.00 0.00 75 1011.3
20260831054603 25 115 9.7 0.0 0.00 0.00 0.00 71 1011.4
20260831053110 25 101 9.7 0.0 0.00 0.00 0.00 68 1011.1
20260831050006 26 134 9.7 0.0 0.00 0.00 0.00 67 1011.1
20260831043001 26 143 6.4 0.0 0.00 0.00 0.00 65 1010.9
20260831041508 27 164 8.0 0.0 0.00 0.00 0.00 65 1010.7
20260831040002 27 159 9.7 0.0 0.00 0.00 0.00 65 1010.8
20260831034605 27 140 9.7 0.0 0.00 0.00 0.00 65 1010.7
20260831033134 27 155 8.0 0.0 0.00 0.00 0.00 65 1010.7
20260831030002 28 141 4.8 0.0 0.00 0.00 0.00 63 1010.6
20260831024627 27 153 3.2 0.0 0.00 0.00 0.00 61 1010.5
20260831023001 28 134 1.6 0.0 0.00 0.00 0.00 57 1010.2
20260831021502 27 117 1.6 0.0 0.00 0.00 0.00 56 1009.9
20260831020007 27 88 0.0 0.0 0.00 0.00 0.00 57 1009.9
20260831011503 28 136 0.0 0.0 0.00 0.00 0.00 53 1009.5
20260831010006 30 136 0.0 0.0 0.00 0.00 0.00 51 1009.5
20260831004604 30 126 3.2 0.0 0.00 0.00 0.00 49 1009.3
20260831003005 31 131 3.2 0.0 0.00 0.00 0.00 47 1009.2
20260831001604 31 96 3.2 0.0 0.00 0.00 0.00 45 1009.2
20260831000002 32 128 6.4 0.0 0.00 0.00 0.00 44 1009.1
20260830234502 32 111 4.8 0.0 0.00 0.00 0.00 44 1009.0
20260830231506 32 193 8.0 0.0 0.00 0.00 0.00 45 1009.0
20260830230008 33 138 8.0 0.0 0.00 0.00 0.00 45 1009.0
20260830224607 33 171 4.8 0.0 0.00 0.00 0.00 45 1009.1
20260830223002 32 157 4.8 0.0 0.00 0.00 0.00 44 1009.3
20260830221508 33 72 3.2 0.0 0.00 0.00 0.00 46 1009.1
20260830220013 32 150 4.8 0.0 0.00 0.00 0.00 48 1009.4
20260830214505 33 155 4.8 0.0 0.00 0.00 0.00 44 1009.4
20260830213006 33 136 6.4 0.0 0.00 0.00 0.00 45 1009.6
20260830211607 33 164 6.4 0.0 0.00 0.00 0.00 44 1009.6
20260830210009 32 101 6.4 0.0 0.00 0.00 0.00 47 1010.0
20260830204606 32 104 6.4 0.0 0.00 0.00 0.00 46 1010.3
20260830203104 32 157 8.0 0.0 0.00 0.00 0.00 46 1010.4
20260830201615 33 181 8.0 0.0 0.00 0.00 0.00 48 1010.4
20260830194504 32 87 6.4 0.0 0.00 0.00 0.00 47 1011.2
20260830193041 32 173 12.9 0.0 0.00 0.00 0.00 46 1011.3
20260830191503 32 153 4.8 0.0 0.00 0.00 0.00 48 1011.5
20260830183006 32 228 6.4 0.0 0.00 0.00 0.00 50 1011.9
20260830180111 31 226 9.7 0.0 0.00 0.00 0.00 54 1012.7
20260830174506 31 198 8.0 0.0 0.00 0.00 0.00 54 1012.8
20260830173112 30 206 8.0 0.0 0.00 0.00 0.00 59 1013.0
20260830171621 30 152 6.4 0.0 0.00 0.00 0.00 60 1013.1
20260830164602 28 267 4.8 0.0 0.00 0.00 0.00 62 1013.3
20260830163004 27 186 8.0 0.0 0.00 0.00 0.00 67 1013.5
20260830161502 28 223 6.4 0.0 0.00 0.00 0.00 68 1013.4
20260830154603 27 198 8.0 0.0 0.00 0.00 0.00 71 1013.3
20260830153102 27 176 8.0 0.0 0.00 0.00 0.00 71 1013.3
20260830151507 26 248 8.0 0.0 0.00 0.00 0.00 74 1013.4
20260830150002 26 180 9.7 0.0 0.00 0.00 0.00 76 1013.3
20260830144506 25 165 9.7 0.0 0.00 0.00 0.00 78 1013.3
20260830143004 25 173 9.7 0.0 0.00 0.00 0.00 80 1013.4
20260830141503 24 215 8.0 0.0 0.00 0.00 0.00 83 1013.3
20260830134602 23 225 9.7 0.0 0.00 0.00 0.00 87 1013.3
20260830133012 23 190 8.0 0.0 0.00 0.00 0.00 88 1013.1
20260830131507 22 180 8.0 0.0 0.00 0.00 0.00 89 1013.0
20260830124603 22 190 6.4 0.0 0.00 0.00 0.00 91 1012.7
20260830123006 22 211 8.0 0.0 0.00 0.00 0.00 90 1012.4
20260830121605 22 198 9.7 0.0 0.00 0.00 0.00 90 1012.4
20260830120004 22 224 6.4 0.0 0.00 0.00 0.00 91 1012.1
20260830114504 22 191 9.7 0.0 0.00 0.00 0.00 90 1012.1
20260830113102 22 181 9.7 0.0 0.00 0.00 0.00 90 1012.2
20260830111602 22 179 11.3 0.0 0.00 0.00 0.00 90 1012.1
20260830110002 22 178 9.7 0.0 0.00 0.00 0.00 90 1012.0
20260830104601 22 178 12.9 0.0 0.00 0.00 0.00 90 1011.9
20260830103104 22 152 9.7 0.0 0.00 0.00 0.00 90 1012.0
20260830101602 22 164 11.3 0.0 0.00 0.00 0.00 89 1011.9
20260830100002 22 187 11.3 0.0 0.00 0.00 0.00 88 1012.0
20260830093104 22 190 6.4 0.0 0.00 0.00 0.00 87 1011.9
20260830091602 22 186 6.4 0.0 0.00 0.00 0.00 86 1011.9